World > North America > United States > Texas

Hourly Ore City, TX Regional Weather

Feedback E-mail the Weather

Quick WX

Ore City, TX Weather Maps

°F °C°F °C
Ore City Weather Map
UTC Time: 7/3/2022, 14:34
Your Time:

Ore City, TX Regional Weather

Expires:202207031500;;611814
ASUS44 KFWD 031415
RWRTX 
NORTH TEXAS HOURLY WEATHER ROUNDUP
NATIONAL WEATHER SERVICE FORT WORTH TX
900 AM CDT SUN JUL 03 2022

NOTE: "FAIR" INDICATES FEW OR NO CLOUDS BELOW 12,000 FEET WITH NO
SIGNIFICANT WEATHER AND/OR OBSTRUCTIONS TO VISIBILITY.


TXZ095>097-106>112-122>126-135>138-148>153-164>167-031500-
EAST TEXAS
  
CITY           SKY/WX    TMP DP  RH WIND       PRES   REMARKS
PARIS          PTSUNNY   82  75  79 S8        30.04R                  
SULPHUR SPRNGS PTSUNNY   84  74  71 SW16      30.05R HX  92           
MOUNT PLEASANT FAIR      81  76  83 SW8       30.04R                  
GILMER         PTSUNNY   82  72  72 SW9       30.05R                  
MINEOLA        CLOUDY    82  75  78 SW8       30.04R                  
TYLER          CLOUDY    83  74  74 SW13      30.04R                  
LONGVIEW       PTSUNNY   82  75  79 SW10      30.04R                  
MARSHALL       CLOUDY    79  74  86 SW6       30.07R                  
ATHENS         PTSUNNY   82  73  74 SW8       30.02R                  
PALESTINE      LGT RAIN  82  77  83 SW13      30.04R HAZE    HX  91   
JACKSONVILLE   PTSUNNY   80  75  86 SW8       30.07R                  
HENDERSON      CLOUDY    85  72  65 S5        30.06R HX  90           
NACOGDOCHES    CLOUDY    82  79  89 SW7       30.06S HX  93           
LUFKIN         FAIR      83  77  82 SW6       30.05S HX  92           
$$

SUPPLEMENTAL OBSERVATIONS (NWS FORT WORTH AREA)
  
CITY           SKY/WX    TMP DP  RH WIND       PRES   REMARKS
CADDO GRASSLND   N/A     81  75  83 S5          N/A                   
LBJ GRASSLAND    N/A     84  73  70 S7          N/A  HX  91           
GRANBURY         N/A     86  72  62 S12         N/A  HX  92           
COMANCHE         N/A     84  70  61 S12G20      N/A                   
MCGREGOR         N/A     84  72  65 S8G17       N/A                   
LAKE LIMESTONE   N/A     84  77  79 SW9         N/A  HX  94           
$$

SUPPLEMENTAL OBSERVATIONS (NWS NORMAN AREA)
  
CITY           SKY/WX    TMP DP  RH WIND       PRES   REMARKS
GOODLETT         N/A     84  65  52 S7        30.01S                  
ODELL            N/A     83  71  67 SE8       30.03R                  
CROWELL          N/A     85  67  54 S7        30.02S                  
KNOX CITY        N/A     87  65  49 S13       30.01R                  
SEYMOUR          N/A     87  67  49 SW10      30.01R HX  90           
MILLERS CREEK    N/A     86  64  48 S8          N/A                   
$$

SUPPLEMENTAL OBSERVATIONS (NWS SAN ANGELO AREA)
  
CITY           SKY/WX    TMP DP  RH WIND       PRES   REMARKS
WEINERT          N/A     86  67  52 S12       30.02R                  
HASKELL          N/A     84  67  55 S9        30.02R                  
THROCKMORTON     N/A     86  66  51 S9        30.01S                  
STAMFORD         N/A     86  67  53 S15       30.02S                  
CLYDE            N/A     83  66  55 S10       30.07S                  
HAMBY            N/A     84  64  51 S13         N/A                   
IVIE RESERVOIR   N/A     82  63  51 SE7         N/A                   
COLORADO BEND    N/A     84  68  58 S10         N/A                   
$$

SUPPLEMENTAL OBSERVATIONS (NWS SHREVEPORT AREA)
  
CITY           SKY/WX    TMP DP  RH WIND       PRES   REMARKS
TEXARKANA        N/A     82  77  83 SW3         N/A  HX  91           
LINDEN           N/A     84  75  74 SW7         N/A  HX  92           
CADDO LAKE       N/A     82  75  78 SW2         N/A                   
N SABINE NF      N/A     84  75  74 MISG        N/A  HX  92           
$$

SUPPLEMENTAL OBSERVATIONS ARE A COLLECTION OF AUTOMATED INSTRUMENTS
THAT ARE MAINTAINED BY A VARIETY OF FEDERAL AND STATE AGENCIES. 
CERTAIN ELEMENTS...SUCH AS HUMIDITY VALUES AND SUSTAINED WIND 
SPEEDS...MAY BE APPROXIMATED.

  

SKY/WX - Weather  TMP - Temperature  DP - Dew Point  RH - Humidity
WIND - Wind Direction/Speed PRES - Barometric Pressure VSB - Visibility
WCI - Wind Chill Index E13G22 Wind - East Wind 13 mph/Gusts of 22 mph

Trending Headlines

Ore City Radar Loop



Ore City Quick Facts


National Two Day Weather Forecast


E-mail the Ore City Weather Forecast

Voice your opinion or tell us about page issues...